Weather in Nelyaty

Russia / Zabaykalsky Krai     56°29′23″N   115°42′09″E
temp.,
°C
wind,
m/s
gust,
m/s
humid.,
%
clouds,
%
prec.,
mm/h
press.,
hPa
HPBL,
m
19 may, wed
wed1900:00−1n1148100 0.0 100612
03:00−3n1160100 0.1 100510
06:00−1ene114858 0.0 100463
09:00+3sse223684 0.0 1002766
12:00+6wsw362882 0.0 10012461
15:00+7nnw453452 0.1 10001808
18:00+4nne3455100 0.4 1002553
21:00+3wnw2251100 0.4 1004107
20 may, thu
thu2000:00−1nnw347175 0.0 100663
03:00−2nnw2275100 0.0 100718
06:00−2n116666 0.0 100837
09:00+4ne01321 0.0 10081208
12:00+8s02205 0.0 10072272
15:00+9ene1319100 0.0 10052402
18:00+8nne4323100 0.0 10061621
21:00+4nne2337100 0.0 100862
21 may, fri
fri2100:00+1nne224429 0.0 101118
03:000nne2248100 0.0 101114
06:000nne1146100 0.0 101225
09:00+6nnw0128100 0.0 1010856
12:00+8s1224100 0.0 10091496
15:00+9sse2328100 0.0 10081625
18:00+9se1227100 0.0 10082040
21:00+6nne1137100 0.0 100927
22 may, sat
sat2200:00+4nne2240100 0.0 101022
03:00+3nne114584 0.0 101110
06:00+2nw115416 0.0 101110
09:00+7sw11375 0.0 1011991
12:00+11wnw1226100 0.0 10082534
15:00+11n3329100 0.0 10082457
18:00+10n2231100 0.0 10092173
21:00+8n1147100 0.0 101036
23 may, sun
sun2300:00+5nnw1158100 0.0 101122
03:00+4nnw2264100 0.0 101247
06:00+4wnw2367100 0.0 1013100
09:00+9wnw234569 0.0 10121318
12:00+12nnw3429100 0.1 10102688
15:00+13nnw452499 0.1 10092780
18:00+12ne362818 0.0 10092256
21:00+8ne224684 0.0 101014